Regional Weather Roundup
Issued by NWS

Home | Current Version | Previous Version | Text Only | Print | Product List | Glossary On
Versions: 1 2 3 4 5 6 7 8 9 10 11 12 13 14 15 16 17 18 19 20 21 22 23 24 25 26 27 28 29 30 31 32 33 34 35 36 37 38 39 40 41 42 43 44 45 46 47 48 49 50
000
ASUS43 KMKX 260120
RWRWI

WISCONSIN REGIONAL WEATHER ROUNDUP
NATIONAL WEATHER SERVICE MILWAUKEE/SULLIVAN WI
800 PM CDT SAT MAY 25 2019

NOTE: "FAIR" INDICATES FEW OR NO CLOUDS BELOW 12,000 FEET WITH NO
SIGNIFICANT WEATHER AND/OR OBSTRUCTIONS TO VISIBILITY.

WIZ001-002-006>008-014>016-023>028-260200-
NORTHWEST WISCONSIN

CITY           SKY/WX    TMP DP  RH WIND       PRES   REMARKS
SUPERIOR ARPT  CLOUDY    62  44  50 NW8       29.94R
ASHLAND        CLOUDY    64  48  56 W12G21    29.91R
HAYWARD        CLOUDY    63  49  60 W7        29.94R
SIREN          CLOUDY    61  47  60 W6        29.95S
CUMBERLAND     FAIR      61  46  59 W7        29.96R
RICE LAKE      FAIR      63  48  58 W6        29.96R
CHETEK         FAIR      62  47  58 W7        29.95R
LADYSMITH      FAIR      62  49  63 W8        29.96R
EAU CLAIRE     MOCLDY    64  47  53 NW10      29.93R
MENOMONIE      FAIR      60  43  53 W9        29.96R
NEW RICHMOND   FAIR      61  45  55 W5        29.96S
OSCEOLA        FAIR      63  47  57 W5        29.98S
$$

WIZ003>005-009-010-017-018-260200-
NORTH CENTRAL WISCONSIN

CITY           SKY/WX    TMP DP  RH WIND       PRES   REMARKS
MANITOWISH WTR FAIR      60  46  59 W6        29.92R
ARBOR VITAE    FAIR      63  47  57 W5        29.91R
WOODRUFF       FAIR      63  47  57 W5        29.91R
RHINELANDER    MOCLDY    66  45  46 W13G25    29.91R
EAGLE RIVER    MOCLDY    63  42  46 W10G16    29.90R
LAND O LAKES   MOCLDY    64  43  47 NW6       29.92R
PHILLIPS       FAIR      60  46  60 W5        29.93R
TOMAHAWK       MOCLDY    62  45  55 W14G21    29.93R
MEDFORD        FAIR      61  46  58 NW9       29.93R
MERRILL        MOCLDY    64  47  54 NW6       29.93R
$$

WIZ029-030-035-036-043>047-260200-
CENTRAL WISCONSIN

CITY           SKY/WX    TMP DP  RH WIND       PRES   REMARKS
WAUSAU         FAIR      66  48  52 W13G26    29.89R
MOSINEE        PTCLDY    66  46  48 W10G17    29.91R
MARSHFIELD     FAIR      66  47  50 NW15      29.91R
STEVENS POINT  FAIR      68  46  45 W10G18    29.90R
WAUPACA        FAIR      74  45  35 W10       29.88R
WAUTOMA        FAIR      74  51  44 W13G21    29.89R
WISC RAPIDS    FAIR      71  46  40 W8G21     29.91R
CAMP DOUGLAS   FAIR      69  53  57 W9        29.91R
$$

WIZ011>013-019>022-031-037>040-048>050-260200-
NORTHEAST WISCONSIN

CITY           SKY/WX    TMP DP  RH WIND       PRES   REMARKS
ANTIGO         FAIR      65  47  51 W10G17    29.90R
SHAWANO        FAIR      74  45  34 W12G17    29.85R
OCONTO         FAIR      73  44  35 W13       29.82R
STURGEON BAY   FAIR      75  47  36 W16G23    29.82R
GREEN BAY      FAIR      75  49  39 W12       29.84R
MANITOWOC      FAIR      77  55  46 W14       29.83S
APPLETON       PTCLDY    73  41  31 W16G23    29.84R
CLINTONVILLE   FAIR      72  43  35 W10       29.86R
OSHKOSH        FAIR      75  53  46 W9        29.86R
$$

WIZ032>034-041-042-053>061-260200-
SOUTHWEST WISCONSIN

CITY           SKY/WX    TMP DP  RH WIND       PRES   REMARKS
LA CROSSE      FAIR      72  49  44 W9        29.91S
SPARTA         FAIR      70  49  47 W8        29.92S
VIROQUA        FAIR      68  56  65 W5        29.92F
BOSCOBEL       FAIR      76  54  46 W7        29.90F
PRAIRIE DU CHI FAIR      72  54  54 W6        29.91R
PLATTEVILLE    MOCLDY    74  61  63 W6        29.93R
$$

WIZ056-057-062-063-064-067-068-260200-
SOUTH CENTRAL WISCONSIN

CITY           SKY/WX    TMP DP  RH WIND       PRES   REMARKS
REEDSBURG      FAIR      71  54  54 W7G18     29.90S
BARABOO/DELLS  FAIR      72  53  49 W7        29.90S
LONE ROCK      FAIR      76  56  49 W12       29.89S
MINERAL POINT  FAIR      73  59  60 W8        29.92S
MADISON        FAIR      75  58  55 W6        29.89R
MIDDLETON      FAIR      77  57  49 W10       29.90S
WATERTOWN      FAIR      74  60  62 SW7       29.88S
MONROE         FAIR      73  60  63 SW8       29.92S
JANESVILLE     CLEAR     77  61  57 SW10      29.91S
$$

WIZ051-052-058>065-066-070>072-260200-
SOUTHEAST WISCONSIN

CITY           SKY/WX    TMP DP  RH WIND       PRES   REMARKS
MILWAUKEE      FAIR      79  59  50 SW10      29.88F HX  80
WAUKESHA       CLEAR     75  57  53 SW12G17   29.91S
MILWAUKEE/TIMM CLEAR     77  55  47 SW15      29.89S
RACINE         FAIR      77  62  59 SW7       29.91S
KENOSHA        FAIR      76  63  64 SW12      29.91S
FOND DU LAC    FAIR      76  55  48 VRB7      29.86R
SHEBOYGAN      FAIR      74  59  59 SW9       29.84S
WEST BEND      FAIR      73  57  56 SW7       29.88R
JUNEAU         FAIR      71  60  67 SW5       29.89S
$$

LSZ147-162-260200-
LAKE SUPERIOR

STATION/POSITION TIME  TEMP    WIND        PRES    WAVE
                       AIR SEA DIR/SP/G            HT/PER
                 (UTC) (F)     (DEG/KT/KT) (MB)    (FT/S)
W MID LAKE BUOY  0050   42 37  270/ 10/ 10 1011.8R   2/ 4
$$

LMZ867-665-643>646-260200-
LAKE MICHIGAN

STATION/POSITION TIME  TEMP    WIND        PRES    WAVE
                       AIR SEA DIR/SP/G            HT/PER
                 (UTC) (F)     (DEG/KT/KT) (MB)    (FT/S)
CHAMBERS ISLAND  2340   75     230/ 12/ 21 1007.1R
N MID LAKE BUOY  0100   48     300/  4/  8 1008.9
NORTHPORT PIER   0040   74     270/  5/  9 1008.1R
KEWAUNEE LAKESHO 0054   77     270/ 11/ 14 1009.2R
SHEBOYGAN LAKESH 0100   78     230/ 11/ 13 1010.0R
MILWAUKEE LAKESH 2350   80     260/ 13/ 15   N/A
S MID LAKE BUOY  0100   49     210/ 10/ 10 1013.4
KENOSHA   LAKESH 0100   78     230/  7/ 12 1012.2
$$

TC  - TEMPERATURE IN CELSIUS
VSB - VISIBILITY IN STATUTE MILES
WCI - WIND CHILL INDEX
HX  - HEAT INDEX




USA.gov is the U.S. government's official web portal to all federal, state and local government web resources and services.